Regional Weather Roundup
Issued by NWS

Home | Current Version | Previous Version | Text Only | Print | Product List | Glossary Off
Versions: 1 2 3 4 5 6 7 8 9 10 11 12 13 14 15 16 17 18 19 20 21 22 23 24 25 26 27 28 29 30 31 32 33 34 35 36 37 38 39 40 41 42 43 44 45 46 47 48 49 50

000
ASUS45 KBOI 031010
RWRID
WEATHER ROUNDUP FOR IDAHO
NATIONAL WEATHER SERVICE BOISE ID
400 AM MDT SUN MAY 03 2015

NOTE: "FAIR" INDICATES FEW OR NO CLOUDS BELOW 12000 FEET
WITH NO SIGNIFICANT WEATHER AND/OR OBSTRUCTIONS TO VISIBILITY

IDZ012-014-031100-
SOUTHWEST IDAHO


CITY           SKY/WX    TMP DP  RH WIND       PRES   REMARKS
BOISE          PTCLDY    50  34  54 SW5       29.85R
CALDWELL       PTCLDY    54  28  37 W10       29.86S
MOUNTAIN HOME  CLOUDY    51  30  44 NW8       29.82F
$$

IDZ016-017-031100-
SOUTHCENTRAL IDAHO


CITY           SKY/WX    TMP DP  RH WIND       PRES   REMARKS
BURLEY         MOCLDY    51  37  58 SW6       29.85R
JEROME         MOCLDY    55  30  38 SW3       29.86R
TWIN FALLS     MOCLDY    56  33  42 S10       29.86R
$$

IDZ019>023-031100-
SOUTHEAST IDAHO


CITY           SKY/WX    TMP DP  RH WIND       PRES   REMARKS
IDAHO FALLS    MOCLDY    54  29  38 NW9       29.90R
POCATELLO      MOCLDY    49  35  58 S6        29.91R
REXBURG        MOCLDY    42  32  67 SE5       29.90R
$$

IDZ006-010-011-018-031-032-031100-
CENTRAL IDAHO MOUNTAINS


CITY           SKY/WX    TMP DP  RH WIND       PRES   REMARKS
MCCALL         MOCLDY    42  32  67 NW9       29.91F
HAILEY         MOCLDY    50  28  43 NW9       29.93S
STANLEY          N/A     29  20  69 CALM      30.00S
SALMON         CLEAR     37  27  65 CALM      29.92R
CHALLIS        CLEAR     40  21  46 CALM      29.93R
$$

IDZ002-004-006-007-026-031100-
NORTHERN IDAHO


CITY           SKY/WX    TMP DP  RH WIND       PRES   REMARKS
LEWISTON       CLEAR     46  28  49 CALM      29.94R
LOWELL           N/A     41  34  76 NW3       30.01R
COEUR D`ALENE  CLEAR     43  27  52 NE10      29.98R
MULLAN PASS    CLEAR     39  14  36 N5        29.98S
$$


USA.gov is the U.S. government's official web portal to all federal, state and local government web resources and services.